Jose Celestino Mutis Airport


Codes: SKBS/BSC
Name: Jose Celestino Mutis Airport
City: Bahia Solano
Country: Colombia
Elevation: 80 ft.

Photos at Jose Celestino Mutis Airport


   Photos courtesy of SpottingLog. You can add your own sightings and photos by signing up for a free trial today.



No photos found.

Weather at Jose Celestino Mutis Airport


Time (UTC)DescriptionTempratureWindCloud coverageVisibilityPressureHumidity
25-Jun-2024 15:00Moderate Rain26°C2 mph, NW93%10000m1012hPa86%
25-Jun-2024 18:00Light Rain26°C2 mph, W96%10000m1012hPa85%
25-Jun-2024 21:00Light Rain27°C4 mph, SW100%10000m1010hPa83%
26-Jun-2024 00:00Light Rain26°C2 mph, SW99%10000m1012hPa86%
26-Jun-2024 03:00Moderate Rain26°C2 mph, SW100%10000m1013hPa89%
26-Jun-2024 06:00Moderate Rain25°C7 mph, S96%7733m1013hPa89%
26-Jun-2024 09:00Moderate Rain25°C9 mph, S100%8094m1012hPa91%
26-Jun-2024 12:00Light Rain25°C7 mph, S100%9688m1013hPa91%
26-Jun-2024 15:00Light Rain26°C4 mph, SE98%10000m1014hPa89%
26-Jun-2024 18:00Light Rain27°C7 mph, SW99%10000m1012hPa85%
26-Jun-2024 21:00Light Rain26°C7 mph, SW87%10000m1010hPa88%
27-Jun-2024 00:00Moderate Rain25°C7 mph, SW86%8851m1012hPa91%
27-Jun-2024 03:00Moderate Rain25°C4 mph, SW96%3119m1013hPa91%
27-Jun-2024 06:00Moderate Rain25°C7 mph, S98%2509m1012hPa95%
27-Jun-2024 09:00Moderate Rain24°C7 mph, S100%8907m1012hPa95%
27-Jun-2024 12:00Moderate Rain25°C7 mph, SE100%10000m1013hPa92%
27-Jun-2024 15:00Light Rain26°C9 mph, S88%10000m1013hPa87%
27-Jun-2024 18:00Moderate Rain26°C9 mph, SW92%10000m1012hPa89%
27-Jun-2024 21:00Moderate Rain25°C7 mph, SW98%10000m1010hPa91%
28-Jun-2024 00:00Light Rain25°C7 mph, SW99%10000m1011hPa92%
28-Jun-2024 03:00Moderate Rain25°C2 mph, SW100%6684m1013hPa92%
28-Jun-2024 06:00Moderate Rain24°C2 mph, SW100%7223m1012hPa95%
28-Jun-2024 09:00Moderate Rain24°C2 mph, SW100%10000m1012hPa94%
28-Jun-2024 12:00Light Rain24°C4 mph, SE100%10000m1013hPa93%
28-Jun-2024 15:00Moderate Rain24°C4 mph, SE100%10000m1014hPa93%
28-Jun-2024 18:00Moderate Rain24°C4 mph, SE100%10000m1013hPa92%
28-Jun-2024 21:00Light Rain24°C4 mph, S100%10000m1011hPa92%
29-Jun-2024 00:00Light Rain24°C4 mph, S100%10000m1013hPa93%
29-Jun-2024 03:00Light Rain24°C4 mph, SE100%10000m1015hPa91%
29-Jun-2024 06:00Light Rain24°C4 mph, S100%10000m1014hPa90%
29-Jun-2024 09:00Light Rain24°C2 mph, S100%10000m1013hPa90%
29-Jun-2024 12:00Light Rain25°C0 mph, SE99%10000m1014hPa87%
29-Jun-2024 15:00Light Rain26°C2 mph, NW98%10000m1015hPa81%
29-Jun-2024 18:00Light Rain27°C2 mph, W83%10000m1013hPa79%
29-Jun-2024 21:00Light Rain27°C4 mph, NW70%10000m1011hPa76%
30-Jun-2024 00:00Light Rain26°C2 mph, NW81%10000m1012hPa83%
30-Jun-2024 03:00Light Rain25°C2 mph, NE100%10000m1014hPa85%
30-Jun-2024 06:00Overcast Clouds25°C2 mph, NE100%10000m1012hPa85%
30-Jun-2024 09:00Overcast Clouds25°C0 mph, E100%10000m1012hPa86%
30-Jun-2024 12:00Overcast Clouds25°C2 mph, S96%10000m1013hPa85%